カタログに戻る

CBERS-4

運用中科学SSO
NORAD 40336·PAYLOAD·🇨🇳 China

打ち上げ Dec 7, 2014 から Taiyuan Satellite Launch Center

Loading…

次のパス (今後24時間)

TLE

最新Source: Space-Track

元期: Sep 14, 2026, 22:51 UTC

1 40336U 14079A   26257.95216770  .00000120  00000-0  56215-4 0  9992
2 40336  98.3441 311.9274 0001967  96.5657 263.5753 14.35518860616831

AllMySatでCBERS-4をリアルタイム追跡

Download on the App Store